User: anonymous   Login
Location: Limerick
(52.6800°N, 8.6400°W)
Time: 22:30:19
(UTC+00:00)
Language:

Sapphire - Orbit

View from above orbital plane
View from above orbital plane
View from above satellite
View from above satellite

Ground track
Ground track

The orbit data is extracted from the following two-line orbital elements,

1 26932U 01043D   15085.28911649  .00000159  00000-0  93544-4 0  9993
2 26932 067.0575 032.1801 0008062 256.1776 103.8428 14.30121356703988
Epoch (UTC): 26 March 2015 06:56:19
Eccentricity: 0.0008062
inclination: 67.0575°
perigee height: 785 km
apogee height: 797 km
right ascension of ascending node: 32.1801°
argument of perigee: 256.1776°
revolutions per day: 14.30121356
mean anomaly at epoch: 103.8428°
orbit number at epoch: 70398

The dashed part of the orbit path shows where the satellite is in the earth's shadow,  

DLR